map of CYB home
CYB - Airport
Location
City:  Cayman Brac Island, Cayman Islands
Name:Gerrard-Smith International Airport
ICAO:MWCB
IATA:CYB

Details
Type:Airport (Aerodrome, Airfield)
Use:International (customs port of entry)
Latitude:1941'13"N (19.686981)
Longitude:7952'58"W (-79.882788)
Datum:WGS 1984
Elevation:8 ft (2 m)
Variation:6.04W (WMM2015v2 magnetic declination)
-0.10 annual change
Runways:1
Longest:6000 × 148 ft (1829 × 45 m), paved

Time
Time Zone:UTC-5
Local Time:

Weather
METAR:MWCB 041400Z 09004KT 9999 FEW022 27/21 Q1016
TAF:MWCB 032300Z 0318/0418 CNL

Related Locations
Nearby:
Farthest:CCK: 11873 mi / 19107 km
West Island (Pulau Panjang) [Cocos (Keeling) Islands], CC

Find:

   beyond  
but within

Other Information
Maps:
NOTAMs:
Links:
Sources:

  
  • flag of Cayman Islands
  

Sectional Chart

Flight Planning
at skyvector.com

Satellite Image

Google Maps Satellite view

 

Copyright © 2004-2019 Karl L. Swartz. All rights reserved.
The Great Circle Mapper name and logo are trademarks of the Great Circle Mapper.
All other trademarks mentioned herein belong to their respective owners.
Please see credits for attibutions and further copyright information.

  Follow gcmap on Facebook Follow gcmap on Twitter GCmap on LinkedIn

hCard Microformat

Geo Microformat